User: anonymous   Login
Location: Unspecified
(0.0000°N, 0.0000°E)
Time: 01:50:54
(UTC+00:00)
Language:

OPTUS D2 - Orbit

View from above orbital plane
View from above orbital plane
View from above satellite
View from above satellite

Ground track
Ground track

The orbit data is extracted from the following two-line orbital elements,

1 32252U 07044A   15179.52474117 -.00000180  00000-0  00000+0 0  9992
2 32252 000.0135 346.9798 0002764 091.6653 178.5826 01.00272046 28289
Epoch (UTC): 28 June 2015 12:35:37
Eccentricity: 0.0002764
inclination: 0.0135°
perigee height: 35774 km
apogee height: 35798 km
right ascension of ascending node: 346.9798°
argument of perigee: 91.6653°
revolutions per day: 1.00272046
mean anomaly at epoch: 178.5826°
orbit number at epoch: 2828

The dashed part of the orbit path shows where the satellite is in the earth's shadow,  

DLR